Gillette, WY

3:44 PM MST on December 04, 2016 (GMT -0700)
Gillette-Campbell County

Weather History for KGCC - December, 2010

Change the Weather History Date:

Friday, December 17, 2010

  Actual Average Record
Temperature  
Mean Temperature 13 °F 23 °F  
Max Temperature 23 °F 34 °F 69 °F (1996)
Min Temperature 2 °F 13 °F -31 °F (1964)
Degree Days  
Heating Degree Days 52 42  
Month to date heating degree days 642 693  
Since 1 July heating degree days 2373 2568  
Cooling Degree Days 0 0  
Month to date cooling degree days 0 0  
Year to date cooling degree days 429 502  
Moisture  
Dew Point 5 °F    
Average Humidity 81    
Maximum Humidity 100    
Minimum Humidity 62    
Precipitation  
Precipitation T in 0.02 in 0.32 in (1968)
Month to date precipitation 0.13 0.25  
Year to date precipitation 13.36 13.74  
Sea Level Pressure  
Sea Level Pressure 30.17 in    
Wind  
Wind Speed 3 mph (East)    
Max Wind Speed 12 mph    
Max Gust Speed 13 mph    
Visibility 6 miles    
Events Fog    
T = Trace of Precipitation, MM = Missing Value Source: NWS Daily Summary

Daily Weather History Graph

Daily Weather History Graph

Search for Another Location

Airport or City:

Trip Planner

Search our weather history database for the weather conditions in past years. The results will help you decide how hot, cold, wet, or windy it might be!

Date:

Astronomy

Dec. 17, 2010 Rise Set
Actual Time 7:32 AM MST 4:24 PM MST
Civil Twilight 6:59 AM MST 4:57 PM MST
Nautical Twilight 6:22 AM MST 5:34 PM MST
Astronomical Twilight 5:47 AM MST 6:09 PM MST
Moon 1:34 PM MST (12/17) 3:51 AM MST (12/17)
Length of Visible Light 9h 58m
Length of Day
8h 51m
Waxing Gibbous, 86% of the Moon is Illuminated
Dec 17
Waxing Gibbous
Dec 21
Full
Dec 27
Last Quarter
Jan 4
New
Jan 12
First Quarter

Hourly Weather History & Observations

Time (MST) Temp. Windchill Dew Point Humidity Pressure Visibility Wind Dir Wind Speed Gust Speed Precip Events Conditions
12:53 AM 16.0 °F 4.4 °F 10.0 °F 77% 30.22 in 10.0 mi West 9.2 mph - N/A   Clear
1:53 AM 16.0 °F 3.6 °F 9.0 °F 74% 30.22 in 10.0 mi West 10.4 mph - N/A   Clear
2:53 AM 14.0 °F 2.0 °F 8.1 °F 77% 30.23 in 10.0 mi West 9.2 mph - N/A   Clear
3:53 AM 12.9 °F 1.6 °F 7.0 °F 77% 30.24 in 10.0 mi West 8.1 mph - N/A   Clear
4:53 AM 10.0 °F -1.9 °F 3.9 °F 76% 30.27 in 10.0 mi West 8.1 mph - N/A   Clear
5:53 AM 10.9 °F - 3.9 °F 73% 30.27 in 10.0 mi Calm Calm - N/A   Clear
6:53 AM 9.0 °F - 3.9 °F 80% 30.28 in 9.0 mi Calm Calm - N/A   Clear
7:53 AM 3.9 °F - 1.0 °F 88% 30.30 in 9.0 mi Calm Calm - N/A   Clear
8:42 AM 6.8 °F -2.0 °F 3.2 °F 85% 30.11 in 1.5 mi North 4.6 mph - N/A   Partly Cloudy
8:49 AM 6.8 °F -0.1 °F 3.2 °F 85% 30.11 in 1.0 mi NNE 3.5 mph - N/A   Mist
8:53 AM 7.0 °F 0.1 °F 3.9 °F 87% 30.32 in 3.0 mi North 3.5 mph - N/A   Scattered Clouds
9:53 AM 10.0 °F - 6.1 °F 84% 30.30 in 10.0 mi Calm Calm - N/A   Clear
10:53 AM 14.0 °F - 8.1 °F 77% 30.27 in 10.0 mi Calm Calm - N/A   Clear
11:53 AM 18.0 °F - 10.0 °F 71% 30.24 in 10.0 mi Calm Calm - N/A   Clear
12:53 PM 21.9 °F - 10.9 °F 63% 30.20 in 10.0 mi Calm Calm - N/A   Clear
1:53 PM 21.2 °F - 12.2 °F 68% 30.03 in 10.0 mi Calm Calm - N/A   Clear
2:53 PM 21.0 °F 16.2 °F 12.0 °F 68% 30.19 in 10.0 mi NE 3.5 mph - N/A   Clear
3:53 PM 15.1 °F 7.7 °F 10.0 °F 80% 30.21 in 10.0 mi ESE 4.6 mph - N/A   Clear
4:53 PM 10.9 °F 4.7 °F 7.0 °F 84% 30.24 in 10.0 mi East 3.5 mph - N/A   Clear
5:53 PM 3.9 °F - 1.0 °F 88% 30.25 in 10.0 mi Calm Calm - N/A   Clear
6:53 PM 1.9 °F - -2.0 °F 83% 30.25 in 10.0 mi Calm Calm - N/A   Partly Cloudy
7:35 PM 3.2 °F -7.8 °F 1.4 °F 92% 30.01 in 8.0 mi East 5.8 mph - N/A   Mostly Cloudy
7:53 PM 6.1 °F -2.8 °F 3.0 °F 87% 30.26 in 5.0 mi ESE 4.6 mph - N/A   Overcast
8:02 PM 6.8 °F -0.1 °F 3.2 °F 85% 30.01 in 4.0 mi ESE 3.5 mph - N/A   Overcast
8:35 PM 6.8 °F -2.0 °F 5.0 °F 92% 30.01 in 1.8 mi SE 4.6 mph - N/A   Overcast
8:48 PM 6.8 °F -0.1 °F 6.8 °F 100% 30.01 in 3.0 mi South 3.5 mph - N/A   Overcast
8:49 PM 7.0 °F - 6.1 °F 96% 30.25 in 3.0 mi Calm Calm - N/A   Overcast
8:54 PM 8.6 °F - 6.8 °F 92% 30.01 in 1.8 mi Calm Calm - N/A   Overcast
8:58 PM 8.6 °F - 6.8 °F 92% 30.00 in 0.5 mi Calm Calm - N/A Fog Light Freezing Fog
9:53 PM 7.0 °F 0.1 °F 6.1 °F 96% 30.22 in 0.2 mi ESE 3.5 mph - 0.00 in Fog Light Freezing Fog
10:53 PM 6.1 °F - 3.9 °F 91% 30.21 in 0.5 mi Calm Calm - 0.00 in Fog Light Freezing Fog
11:01 PM 6.8 °F -0.1 °F 3.2 °F 85% 30.00 in 1.0 mi ESE 3.5 mph - N/A   Overcast
11:44 PM 3.2 °F -4.2 °F 1.4 °F 92% 29.99 in 2.5 mi SE 3.5 mph - N/A   Overcast
11:51 PM 3.2 °F - -0.4 °F 85% 29.99 in 5.0 mi Calm Calm - N/A   Overcast
11:53 PM 3.0 °F - -0.0 °F 87% 30.20 in 5.0 mi Calm Calm - N/A   Overcast